Regional Weather Roundup
Issued by NWS

Home | Current Version | Previous Version | Graphics & Text | Print | Product List | Glossary On
Versions: 1 2 3 4 5 6 7 8 9 10 11 12 13 14 15 16 17 18 19 20 21 22 23 24 25 26 27 28
000
ASUS45 KCYS 220610
RWRWY

WYOMING REGIONAL WEATHER ROUNDUP
NATIONAL WEATHER SERVICE CHEYENNE WY
1100 PM MST TUE FEB 21 2017

NOTE:  "FAIR" INDICATES FEW OR NO CLOUDS BELOW 12,000 FEET
WITH NO SIGNIFICANT WEATHER AND/OR OBSTRUCTIONS TO VISIBILITY.

WYZ001-220700-
YELLOWSTONE NATIONAL PARK

CITY           SKY/WX    TMP DP  RH WIND       PRES   REMARKS
LK YELLOWSTONE   N/A     23  20  88 VRB5      29.86S WCI  17
6HR MIN TEMP:  23; 6HR MAX TEMP:  27; 6HR PCP:  0.06;

W YELLOWSTONE  NOT AVBL

$$
WYZ002>013-054>058-071-098>099-220700-
NORTHERN WYOMING

CITY           SKY/WX    TMP DP  RH WIND       PRES   REMARKS
JACKSON        CLOUDY    30  25  80 W10       29.89F WCI  21
CODY           FAIR      38  24  57 W10       29.79R WCI  31
GREYBULL       FAIR      39  27  62 N16       29.75R WCI  30
6HR MIN TEMP:  37; 6HR MAX TEMP:  46;

WORLAND        FAIR      39  32  76 SW12      29.77S WCI  32
6HR MIN TEMP:  37; 6HR MAX TEMP:  49; 6HR PCP: TRACE;

SHERIDAN       FAIR      48  22  35 SW30G37   29.70R
6HR MIN TEMP:  47; 6HR MAX TEMP:  52;

BUFFALO        MOCLDY    46  18  32 W16       29.72S
6HR MIN TEMP:  46; 6HR MAX TEMP:  51;

GILLETTE       FAIR      47  29  49 SW16      29.70F
6HR MIN TEMP:  45; 6HR MAX TEMP:  53; 6HR PCP: TRACE;

HULETT         CLOUDY    52  27  37 SW14      29.72F
NEWCASTLE      LGT RAIN  43  37  81 N10       29.78R

$$
WYZ014>020-022>026-101>103-220700-
CENTRAL WYOMING

CITY           SKY/WX    TMP DP  RH WIND       PRES   REMARKS
BIG PINEY      CLOUDY    27  25  92 SW15      29.98R WCI  15
6HR MIN TEMP:  25; 6HR MAX TEMP:  32; 6HR PCP:  0.02;

PINEDALE       MOCLDY    28  23  80 W12       29.97R WCI  18
DUBOIS         FAIR      25  18  74 W23       29.82F WCI  10
LANDER         FAIR      33  25  72 SW7       29.86R WCI  27
6HR MIN TEMP:  32; 6HR MAX TEMP:  44; 6HR PCP:  0.22;

RIVERTON       FAIR      33  32  96 S12       29.86S WCI  24
6HR MIN TEMP:  32; 6HR MAX TEMP:  45; 6HR PCP:  0.07;

CASPER         CLOUDY    38  27  64 SW10      29.86R WCI  31
6HR MIN TEMP:  37; 6HR MAX TEMP:  55; 6HR PCP: TRACE;

DOUGLAS        LGT RAIN  39  34  82 W24G31    29.84S WCI  28
6HR MIN TEMP:  39; 6HR MAX TEMP:  56; 6HR PCP:  0.03;


$$
WYZ021-027>030-104>119-220700-
SOUTHERN WYOMING

CITY           SKY/WX    TMP DP  RH WIND       PRES   REMARKS
EVANSTON       SNOW      27  23  85 NW9       30.05R VSB 1/2 WCI  18
6HR MIN TEMP:  27; 6HR MAX TEMP:  36; 6HR PCP:  0.15;

KEMMERER       LGT SNOW  28  27  93 SW12      30.01F WCI  18
FORT BRIDGER   LGT SNOW  29  29 100 W9        30.06S WCI  20
ROCK SPRINGS   LGT SNOW  30  27  88 SW13      30.03R FOG     WCI  20
6HR MIN TEMP:  30; 6HR MAX TEMP:  48; 6HR PCP:  0.02;

DIXON          LGT SNOW  32  29  88 NW17G32   30.04R VSB 3/4 WCI  21
RAWLINS        FLURRIES  32  27  81 W24G32    29.96R WCI  19
6HR MIN TEMP:  32; 6HR MAX TEMP:  48; 6HR PCP:  0.12;

SARATOGA       LGT SNOW  30  30 100 W21G28    29.98R WCI  17
LARAMIE        FAIR      40  20  44 SW24G32   29.85F WCI  29
6HR MIN TEMP:  35; 6HR MAX TEMP:  47;

CHEYENNE       FAIR      43  18  36 SW10      29.86F
6HR MIN TEMP:  38; 6HR MAX TEMP:  56;

TORRINGTON     FAIR      50  20  30 W8        29.76F
6HR MIN TEMP:  49; 6HR MAX TEMP:  65;

PINE BLUFFS    FAIR      46  18  31 SW16G24   29.83F

$$




USA.gov is the U.S. government's official web portal to all federal, state and local government web resources and services.